Details From LPFR - Faro
To LXGB - Gibraltar
Flight Number -
Tags decoded
Created
Modified
Stats Distance 138 nm / 255 km
Max Altitude 0 ft / 0 m
Waypoints 3
Social Downloads 2
Likes 0
Share

Download

Looking for another format? Having issues loading an existing format? Contact us
Advertisement - Login to hide

Notes

Requested: LPFR VJF LXGB

Route

LPFR VJF LXGB

ID Type Via Altitude (ft/m) Position (lat/lon) Dist (leg/tot) Name
O LPFR APT - 0 / 0 37.01534 / -7.97233 - / 0 nm Faro
VJF VOR - 0 / 0 36.24718 / -5.97187 106 / 106 nm VEJER VOR-DME
O LXGB APT - 0 / 0 36.15121 / -5.34966 30 / 137 nm Gibraltar

Altitude Profile

Advertisement - Login to hide

LPFR

Details ICAO LPFR (FAO)
Name Faro
Region Portugal
Timezone Europe/Lisbon (UTC+1.0)
Stats Elevation 22 ft / 7 m (AMSL)
Location 37.015300° -7.972320°
Runways 1
Magnetic Variation 1.365° W

METAR

LPFR 021430Z 09013KT CAVOK 26/09 Q1018

Decode

TAF

TAF LPFR 021100Z 0212/0312 09015KT CAVOK BECMG 0217/0219 06008KT TEMPO 0300/0309 9999 FEW040CB BECMG 0309/0312 19008KT 9999 SCT012

Decode

Departure Runways

ID Width Length Bearing (true/mag) Surface Threshold Overrun Markings Lighting
10 148 ft / 45 m 8,179 ft / 2,493 m 100.08° / 101.44° ASPHALT 148 ft / 45 m 0 ft / 0 m PREC-APP EDGE THRESHOLD REIL-OMNI
28 148 ft / 45 m 8,179 ft / 2,493 m 280.09° / 281.46° ASPHALT 144 ft / 44 m 0 ft / 0 m PREC-APP EDGE THRESHOLD REIL-OMNI

LXGB

Details ICAO LXGB (GIB)
Name Gibraltar
Region Gibralter
Timezone Europe/Gibraltar (UTC+2.0)
Stats Elevation 15 ft / 5 m (AMSL)
Location 36.151200° -5.349850°
Runways 1
Magnetic Variation 0.579° W

METAR

LXGB 021420Z 04014KT 9999 FEW023 BKN250 21/15 Q1021 TEMPO SCT023

Decode

TAF

Not found

Destination Runways

ID Width Length Bearing (true/mag) Surface Threshold Overrun Markings Lighting
09 148 ft / 45 m 5,836 ft / 1,779 m 87.52° / 88.10° ASPHALT 476 ft / 145 m 0 ft / 0 m UK-PREC-APP EDGE THRESHOLD REIL-OMNI
27 148 ft / 45 m 5,836 ft / 1,779 m 267.53° / 268.11° ASPHALT 354 ft / 108 m 0 ft / 0 m UK-PREC-APP EDGE THRESHOLD REIL-OMNI

Popular Alternatives